Lid_Strength_Index
9 9 9 12 14 13 15 16 17 15 12 8 8 7 7 6 6 6 5 4 4 3 3 3 3 2 2 2 2 2 1 1
9 9 10 10 11 14 16 17 18 16 14 13 10 9 7 7 6 6 6 5 4 4 3 2 2 2 2 2 2 2 1 1
12 12 12 12 13 13 15 16 17 17 14 10 9 8 8 7 6 6 5 5 4 3 3 2 2 2 2 2 2 2 1 1
12 11 10 11 11 14 16 16 16 16 14 8 7 7 6 6 6 5 4 4 4 3 3 3 3 2 2 2 2 2 1 1
14 12 11 12 13 14 14 16 16 16 15 9 9 8 6 6 6 5 5 4 4 3 3 3 3 3 2 2 2 2 1 2
15 13 12 13 11 12 13 15 16 15 13 11 9 8 7 6 6 5 5 5 4 4 6 4 3 3 2 2 2 2 1 2
13 11 10 10 11 10 13 13 13 12 12 10 9 7 7 6 6 6 5 5 6 5 6 4 3 3 2 2 2 2 2 2
12 10 10 10 10 11 11 12 13 12 11 8 7 6 6 6 6 6 6 5 6 5 4 4 3 3 3 2 3 3 4 4
15 11 10 13 10 11 10 10 11 12 9 7 8 8 8 7 6 6 6 5 5 4 4 3 3 3 3 2 2 2 3 2
15 13 15 11 9 9 10 9 9 9 8 7 8 7 7 6 6 6 5 5 4 4 4 3 3 2 2 2 2 2 2 2
14 16 12 9 9 9 10 10 7 8 7 7 7 6 7 5 5 5 5 5 4 3 3 3 3 2 2 2 2 2 3 2
14 15 16 11 7 7 8 12 7 7 7 7 7 11 9 7 5 5 4 4 5 3 3 3 3 2 3 3 3 3 2 2
14 14 12 9 7 6 12 11 7 6 7 8 8 8 6 6 5 4 4 4 4 4 3 3 2 2 3 3 3 2 2 3
13 15 15 7 7 10 9 8 6 6 6 7 7 6 6 5 6 4 4 4 4 6 3 3 2 2 3 3 3 3 4 4
11 12 8 7 7 6 6 8 6 6 6 6 6 6 5 5 5 4 5 3 3 5 5 3 3 2 3 3 3 3 3 3
10 9 8 7 6 5 5 6 6 5 6 6 7 6 5 5 5 5 4 4 3 5 4 4 4 3 2 2 3 3 2 2
11 9 7 6 6 6 5 4 5 5 6 7 8 7 5 5 4 4 4 3 3 4 3 3 3 2 2 2 1 2 2 2
11 8 8 7 5 5 5 5 5 5 5 6 7 7 6 5 4 4 4 3 3 3 3 3 3 3 3 1 1 2 3 3
8 6 6 5 5 4 5 5 4 4 4 7 7 6 6 6 5 4 4 4 3 3 4 2 2 2 1 1 2 3 3 3